Find Starlink 34453

NORAD ID: 64441 Int'l Des: 2025-130 Owner: SPXS Country: US Constellation: starlink operational
LEOCIRCULAR

Current View

Loading 3D Globe...

About Starlink 34453

Description loading...

Upcoming Passes

Passes for default location (London). Set your location on the main map for personalized predictions.

Altitude History

Loading altitude history...

Two-Line Element Set

1 64441U 25130D 26151.06699039 .00023303 00000-0 69894-3 0 9997
2 64441 53.1592 65.3276 0000939 94.4310 265.6800 15.34388434 53320
Epoch: May 31, 2026 • Age: 17 hours

Current Status

Altitude 464.0 km
Velocity 7.64 km/s
Sub-Earth Point 29.77°N, 86.65°W
Launch Date Jun 18, 2025
Age 0.9 years
Type internet

Technical Details

Classification Payload
Mass 575.00 kg
Dry Mass 530.00 kg
Total Mass 575.00 kg
Length 0.30 m
Diameter 4.10 m
Span 29.00 m
Shape Box + pan
Manufacturer SPXS
Bus Type Starlink V2MO
Phase Status In Orbit
Owner/State SPXS/US

Most Searched